SCP
0 0 0 0 0 0 0 0 0 0 0 0 0 0 0 0 0 0 0 0 0 0 0 0 0 0 0 0 0 0 0 0 0 0 0 0 0 0 0 0 0 0 0 0 0
0 0 0 0 0 0 0 0 0 0 0 0 0 0 0 -0 0 0 0 -0 0 0 0 0 0 0 0 0 0 0 0 0 0 0 0 0 0 0 0 0 0 0 0 0 0
0 0 0 0 0 0 0 0 0 0 0 0 0 0 0 0 0 0 -0 -0 0 0 0 0 0 0 0 0 0 0 0 0 0 0 0 -0 -0 0 0 0 0 0 0 0 0
0 0 0 0 0 0 0 0 0 0 0 0 0 0 0 0 0 0 -0 -0 -0 0 0 0 0 0 0 0 0 0 0 0 0 0 0 0 -0 0 0 0 0 0 0 0 0
0 0 0 0 0 0 0 0 0 0 0 0 0 0 0 0 0 0 -0 -0 0 0 0 0 0 0 0 0 0 0 0 0 0 0 0 0 0 -0 0 0 0 0 0 0 0
0 0 0 0 0 0 0 0 0 0 0 0 0 0 0 0 0 0 0 0 0 0 0 0 0 0 0 0 0 0 0 0 0 0 0 0 0 0 -0 0 0 0 0 0 0
0 0 0 0 0 0 0 0 0 0 0 0 0 0 0 0 0 0 0 0 0 0 0 0 0 0 0 0 0 0 0 0 0 0 0 0 0 -0 -0 -0 0 0 0 0 0
0 0 0 0 0 0 0 0 0 0 0 0 0 0 0 0 0 0 0 0 0 0 0 0 0 0 0 0 0 0 0 0 0 0 0 -0 -0 0 0 -0 0 0 0 0 0
0 0 0 0 0 0 0 0 0 0 0 0 0 0 0 -0 0 0 0 0 0 0 0 0 0 0 0 0 0 0 0 0 0 0 -0 0 -0 0 0 0 0 0 0 0 0
0 0 0 0 0 0 0 0 0 0 0 0 0 0 0 0 0 0 0 0 0 0 0 0 0 0 0 0 0 0 0 0 0 0 0 0 0 0 0 0 0 0 0 0 0
0 0 0 0 0 0 0 0 0 0 0 0 0 0 0 -0 0 0 0 0 0 0 0 0 0 0 0 0 0 0 0 0 0 0 0 0 0 -0 -0 -0 0 -0 0 0 0
0 0 0 0 0 0 0 0 0 0 0 0 0 0 0 0 0 -0 -0 0 0 0 0 0 0 0 0 0 0 0 0 0 0 0 0 0 0 -0 -0 -0 -0 0 0 0 0
0 0 0 0 0 0 0 0 0 0 0 0 0 0 0 0 0 0 0 0 0 0 0 0 0 0 0 0 0 0 0 0 0 0 0 0 -0 0 0 0 0 0 0 0 0
0 0 0 0 0 0 0 0 0 0 0 0 0 0 0 0 0 0 0 0 0 0 0 0 0 0 0 0 0 0 0 0 0 0 0 0 0 0 0 0 0 0 0 0 0
0 0 0 0 0 0 0 0 0 0 0 0 0 0 0 0 0 0 0 0 0 0 0 0 0 0 0 0 0 0 0 0 0 0 0 0 0 0 -0 0 0 0 -0 0 0
0 0 0 0 0 0 0 0 0 0 0 0 0 0 0 0 0 0 0 0 0 0 0 0 0 0 0 0 0 0 0 0 0 0 0 0 0 0 0 0 0 0 0 -0 0
0 0 0 0 0 0 0 0 0 0 0 0 0 0 0 0 0 0 0 0 0 0 0 0 0 0 0 0 0 0 0 0 0 0 0 0 0 0 0 0 0 0 -0 -0 -0
0 0 0 0 0 0 0 0 0 0 0 0 0 0 0 0 0 0 0 0 0 0 0 0 0 0 0 0 0 0 0 0 0 0 0 0 0 0 -0 -0 0 -0 -0 -0 0
0 0 0 0 0 0 0 0 0 0 0 0 0 0 0 0 0 0 0 0 0 0 0 0 0 0 0 0 0 0 0 0 0 0 0 0 0 0 -0 0 0 0 -0 -0 -0
0 0 0 0 0 0 0 0 0 0 0 0 0 0 0 0 0 0 0 0 0 0 0 0 0 0 0 0 0 0 0 0 0 0 0 0 0 0 0 -0 -0 -0 -0 -0 0
0 0 0 0 0 0 0 0 0 0 0 0 0 0 0 0 0 0 0 0 0 0 0 0 0 0 0 0 0 0 0 0 0 0 0 0 0 0 0 0 0 -0 0 -0 0
0 0 0 0 0 0 0 0 0 0 0 0 0 0 0 0 0 0 0 0 0 0 0 0 0 0 0 0 0 0 0 0 0 0 0 0 0 0 0 0 0 0 0 0 -0
0 0 0 0 0 0 0 0 0 0 0 0 0 0 0 0 0 0 0 0 0 0 0 0 0 0 0 0 0 0 0 0 0 0 0 0 0 -0 0 0 0 0 0 0 -0
0 0 0 0 0 0 0 0 0 0 0 0 0 0 0 0 0 0 0 0 0 0 0 0 0 0 0 0 0 0 0 0 0 0 0 0 0 0 0 0 0 0 0 0 -0
0 0 0 0 0 0 0 0 0 0 0 0 0 0 0 0 0 0 0 0 0 0 0 0 0 0 0 0 0 0 0 0 0 0 0 0 0 0 0 0 0 0 0 0 0
0 0 0 0 0 0 0 0 0 0 0 0 0 0 0 0 0 0 0 0 0 0 0 0 0 0 0 0 0 0 0 0 0 0 0 0 0 0 0 0 0 0 0 0 0
0 0 0 0 0 0 0 0 0 0 0 0 0 0 0 0 0 0 0 0 0 0 0 0 0 0 0 0 0 0 0 0 0 0 0 0 0 0 0 0 0 0 0 0 0
Wind_Speed_500mb
9 8 9 12 14 17 19 21 23 25 23 24 24 19 10 10 32 17 21 31 32 28 24 19 12 9 12 12 11 4 8 3 2 6 11 33 20 19 35 15 41 10 35 49 34
8 9 10 11 14 16 18 20 22 22 22 22 21 19 13 3 11 37 32 23 22 24 21 25 17 10 11 11 12 11 6 2 4 5 7 26 17 31 24 45 14 28 50 62 36
8 8 8 11 14 16 19 21 22 21 20 22 20 15 9 6 8 28 30 27 24 24 23 29 13 14 14 15 17 8 6 9 2 18 29 8 21 30 16 11 35 52 69 54 40
9 8 8 11 13 17 19 20 21 20 20 18 16 11 11 9 5 25 27 27 25 27 20 22 10 8 10 9 11 8 14 8 12 32 26 16 21 21 13 21 48 53 44 49 46
10 9 10 10 14 16 17 20 22 23 21 18 10 4 11 18 19 24 20 21 21 21 29 15 32 10 9 5 7 8 11 23 31 23 43 23 26 13 30 29 46 44 36 34 39
11 11 12 13 13 14 16 20 22 20 17 12 12 13 11 16 26 26 19 19 23 26 25 27 19 18 15 8 8 9 13 21 9 29 15 26 34 8 5 49 62 60 58 52 40
13 12 12 13 11 12 15 18 19 13 10 27 23 25 35 22 27 25 19 22 26 26 26 25 22 7 7 5 12 8 10 10 10 27 14 50 7 7 18 65 68 77 74 67 58
15 12 11 12 10 10 13 15 11 10 7 9 9 17 16 30 26 19 18 22 19 25 24 20 13 27 13 6 11 11 11 13 12 26 13 19 16 17 62 49 69 67 79 78 72
16 12 10 10 9 8 9 9 7 13 10 8 5 9 10 15 29 25 22 17 14 17 23 13 13 16 19 7 8 14 3 6 17 26 10 15 31 34 77 61 58 69 78 81 80
16 13 9 8 8 5 2 15 22 10 8 10 12 13 14 18 39 31 11 18 14 7 9 18 15 9 10 14 4 7 7 9 12 14 19 22 28 36 60 60 61 62 75 83 80
17 14 10 8 7 4 4 9 1 9 33 18 13 17 12 8 27 36 18 6 11 21 10 15 17 10 12 5 2 4 5 11 11 7 25 11 29 39 44 48 60 52 59 69 72
19 15 11 9 4 4 5 6 8 19 21 21 21 22 21 17 9 46 20 10 19 9 10 13 7 8 11 10 5 3 6 10 15 6 16 16 30 21 9 40 51 56 61 71 76
20 18 12 9 7 0 5 9 24 22 11 7 12 13 10 22 18 34 25 10 14 13 15 12 6 16 7 8 12 5 3 6 8 32 3 15 11 14 30 50 66 65 55 64 65
22 19 14 13 8 8 5 14 25 7 9 9 6 6 10 6 10 31 18 8 14 8 8 6 9 8 5 4 7 9 1 6 22 18 7 13 11 13 26 39 41 64 69 63 69
24 20 18 18 6 13 8 14 22 7 6 3 3 5 15 13 3 19 27 19 10 6 7 3 10 9 7 6 3 12 9 16 15 5 5 10 5 14 31 40 44 63 66 69 64
26 23 19 18 13 13 14 20 20 12 11 2 3 2 7 13 7 7 10 15 11 8 7 2 4 4 5 10 7 13 8 6 4 2 4 5 4 13 29 28 36 51 56 64 64
29 24 22 21 18 19 20 23 10 8 8 7 4 3 8 7 10 13 8 12 7 9 13 12 5 4 2 8 4 11 7 6 10 8 6 10 6 14 24 29 26 40 54 61 58
33 28 25 20 19 22 24 10 8 5 13 2 5 5 8 5 6 10 4 6 8 10 7 6 10 9 9 5 6 9 6 5 4 5 9 11 8 8 18 40 39 47 57 61 47
36 29 25 25 24 25 11 7 14 13 12 16 9 9 6 4 8 8 4 5 4 5 11 5 9 6 0 2 2 8 8 3 5 3 6 7 9 13 42 37 54 54 58 73 78
41 32 27 28 26 25 8 10 6 7 10 6 8 7 8 7 7 8 1 7 8 4 9 5 6 3 8 3 1 3 6 5 5 7 9 8 4 16 38 41 40 47 56 65 61
40 20 26 30 29 15 7 13 7 14 9 8 9 9 6 11 10 6 9 5 2 6 8 5 6 9 4 7 1 8 6 6 2 1 4 7 3 7 18 28 33 46 56 61 55
43 5 34 42 10 3 6 12 10 11 6 4 7 8 10 9 8 7 11 11 9 11 10 3 3 4 6 3 3 3 3 3 2 7 3 5 7 7 18 37 42 52 54 53 52
34 12 36 47 7 4 0 2 6 9 10 9 5 4 4 10 10 9 8 5 15 7 8 7 4 4 10 9 6 6 3 1 5 4 3 5 9 20 48 52 57 52 53 53 56
26 8 13 29 10 13 11 7 5 8 9 7 7 8 7 6 7 10 7 3 9 11 13 7 2 7 9 6 4 8 8 4 4 4 5 8 13 16 32 27 51 57 43 43 50
34 13 21 13 17 10 7 14 12 13 7 12 3 5 10 8 6 7 6 6 6 12 8 7 8 3 6 8 5 7 9 7 8 6 7 7 10 11 19 25 36 38 38 41 46
37 17 16 10 39 20 17 15 20 10 16 10 8 13 9 12 13 17 14 7 9 3 6 4 3 4 7 6 5 8 10 11 5 2 8 9 4 11 27 35 47 45 39 40 38
58 39 22 25 17 19 13 15 20 26 9 8 21 11 7 9 19 31 20 17 18 11 5 7 8 6 9 9 9 10 11 5 3 3 0 4 4 21 11 30 40 40 35 32 31
Wind_Direction_500mb
307 325 330 342 350 356 -0 2 3 4 360 354 353 351 355 44 40 42 32 11 6 9 14 13 5 55 76 72 60 68 65 181 338 22 314 342 2 341 341 336 334 25 17 343 305
287 303 322 333 349 356 355 358 360 3 360 351 345 349 357 33 18 35 29 14 17 15 23 20 38 61 65 42 26 62 84 13 65 1 3 320 336 326 337 332 332 330 337 348 332
275 290 312 326 344 349 351 353 355 1 355 348 351 -0 25 68 51 18 28 19 19 18 21 13 28 60 66 46 18 6 94 350 4 346 338 295 315 325 324 332 319 317 320 327 322
261 279 300 321 335 338 345 346 351 354 353 351 356 11 53 43 81 9 20 19 18 18 11 33 41 57 64 53 6 93 29 18 320 330 338 307 320 312 312 285 319 315 317 314 315
253 276 297 312 323 329 336 344 349 351 353 350 349 81 69 61 25 358 7 14 20 26 36 50 49 71 89 68 56 58 344 335 327 360 343 347 328 266 292 337 337 335 334 327 319
243 267 290 303 311 327 336 344 344 353 7 44 67 94 75 70 24 13 23 25 27 34 42 53 60 77 91 63 65 315 304 305 5 345 2 358 309 285 334 339 327 327 324 325 320
237 261 284 294 307 329 333 339 346 2 65 101 84 76 71 53 33 23 30 37 41 47 53 58 61 75 78 78 7 333 11 354 20 353 8 347 27 222 310 325 319 315 314 310 307
236 255 279 289 309 325 338 350 7 32 69 182 48 68 77 53 42 44 45 43 45 48 52 63 84 61 49 8 30 33 44 360 309 358 354 24 279 291 310 317 311 312 309 307 299
236 249 255 283 301 326 351 26 50 63 80 96 72 86 75 47 35 27 32 23 38 52 44 41 52 53 23 40 37 18 348 313 318 341 330 55 295 300 311 318 310 304 303 302 299
238 238 243 266 288 309 75 90 66 104 89 67 60 85 55 40 32 20 24 32 19 352 34 42 45 56 20 24 40 324 336 293 257 309 343 304 287 307 320 324 314 308 305 302 296
233 235 230 253 273 290 221 182 218 67 67 61 59 88 72 26 28 25 25 43 20 45 40 33 57 29 330 341 268 234 248 275 268 305 339 336 305 307 322 343 335 334 333 321 297
229 229 224 235 256 264 221 201 162 136 85 68 75 79 58 42 28 24 38 57 40 41 353 31 54 316 322 5 13 348 311 308 298 43 321 321 305 283 301 349 339 326 326 327 326
223 224 219 223 223 312 195 141 145 131 85 41 47 51 48 55 40 13 27 44 55 39 29 87 336 331 42 16 8 314 249 317 319 329 310 331 312 296 344 353 348 334 336 340 338
217 220 211 207 219 206 172 152 157 129 78 294 339 22 24 69 54 20 32 65 49 66 36 62 327 5 2 52 57 319 206 5 328 355 328 40 312 315 340 346 350 344 345 340 357
213 211 209 196 197 188 181 162 161 102 9 292 20 65 61 79 16 8 30 67 93 59 82 259 6 360 345 335 48 241 344 303 304 314 15 344 304 279 346 351 346 337 339 347 1
212 206 207 201 189 190 162 143 134 46 256 284 299 49 72 34 53 346 41 70 87 97 25 242 264 171 252 300 228 290 321 46 48 268 8 305 46 301 351 340 339 334 342 352 3
208 203 199 191 182 180 159 140 48 137 340 269 153 127 95 32 25 25 28 29 72 62 12 337 344 313 303 329 5 347 15 6 359 4 240 330 59 246 332 340 333 337 344 352 7
204 199 198 192 180 170 159 62 110 222 216 199 95 71 106 103 25 8 41 42 32 83 85 51 329 5 3 80 324 332 29 103 248 309 296 322 332 295 346 344 352 354 357 1 11
196 194 195 190 181 175 162 79 206 200 165 151 68 82 330 137 129 77 33 142 115 116 118 50 293 320 218 358 52 327 60 94 265 8 309 290 329 330 342 353 357 358 1 5 16
191 185 192 187 181 174 91 229 176 184 129 116 133 153 166 180 95 71 271 259 138 120 154 119 333 288 299 349 347 22 301 50 8 11 314 317 48 338 346 342 344 355 359 7 20
187 170 189 181 171 173 169 216 194 194 161 145 147 134 185 146 135 162 192 257 149 132 94 112 116 295 33 20 24 1 30 18 279 250 310 321 330 353 338 342 336 341 5 14 24
177 146 176 171 148 107 172 179 161 154 183 131 120 119 158 154 127 150 186 187 161 152 137 134 140 257 223 267 270 194 126 30 76 317 229 276 269 61 3 349 353 347 7 23 33
168 133 176 180 158 222 144 4 198 143 178 163 139 160 155 147 112 137 135 152 149 121 147 175 314 13 358 4 19 69 14 67 247 218 276 290 275 357 1 353 352 353 7 22 32
161 146 161 201 213 145 146 172 176 188 156 147 124 108 112 96 50 155 128 146 139 116 116 134 91 184 183 183 153 286 309 324 168 235 260 226 303 341 346 349 344 355 14 32 39
183 195 173 177 203 168 164 145 151 163 186 168 27 208 153 114 93 131 124 109 71 154 91 106 150 278 265 268 207 238 257 287 198 204 201 298 318 358 337 333 343 1 29 39 45
179 162 149 176 161 146 177 203 165 160 147 197 156 176 141 153 178 181 138 174 179 121 95 60 174 69 317 285 348 266 245 234 220 253 277 318 304 24 2 4 15 23 30 38 45
195 182 160 161 146 169 196 173 183 141 194 182 161 118 131 157 118 123 103 123 145 138 121 98 118 74 267 347 329 340 217 175 116 118 207 318 300 339 346 12 16 17 32 36 46
Wind_Speed_850mb
9 8 9 12 14 17 19 21 23 25 23 24 24 19 10 10 32 17 21 31 32 28 24 19 12 9 12 12 11 4 8 3 2 6 11 33 20 19 35 15 41 10 35 49 34
8 9 10 11 14 16 18 20 22 22 22 22 21 19 13 3 11 37 32 23 22 24 21 25 17 10 11 11 12 11 6 2 4 5 7 26 17 31 24 45 14 28 50 62 36
8 8 8 11 14 16 19 21 22 21 20 22 20 15 9 6 8 28 30 27 24 24 23 29 13 14 14 15 17 8 6 9 2 18 29 8 21 30 16 11 35 52 69 54 40
9 8 8 11 13 17 19 20 21 20 20 18 16 11 11 9 5 25 27 27 25 27 20 22 10 8 10 9 11 8 14 8 12 32 26 16 21 21 13 21 48 53 44 49 46
10 9 10 10 14 16 17 20 22 23 21 18 10 4 11 18 19 24 20 21 21 21 29 15 32 10 9 5 7 8 11 23 31 23 43 23 26 13 30 29 46 44 36 34 39
11 11 12 13 13 14 16 20 22 20 17 12 12 13 11 16 26 26 19 19 23 26 25 27 19 18 15 8 8 9 13 21 9 29 15 26 34 8 5 49 62 60 58 52 40
13 12 12 13 11 12 15 18 19 13 10 27 23 25 35 22 27 25 19 22 26 26 26 25 22 7 7 5 12 8 10 10 10 27 14 50 7 7 18 65 68 77 74 67 58
15 12 11 12 10 10 13 15 11 10 7 9 9 17 16 30 26 19 18 22 19 25 24 20 13 27 13 6 11 11 11 13 12 26 13 19 16 17 62 49 69 67 79 78 72
16 12 10 10 9 8 9 9 7 13 10 8 5 9 10 15 29 25 22 17 14 17 23 13 13 16 19 7 8 14 3 6 17 26 10 15 31 34 77 61 58 69 78 81 80
16 13 9 8 8 5 2 15 22 10 8 10 12 13 14 18 39 31 11 18 14 7 9 18 15 9 10 14 4 7 7 9 12 14 19 22 28 36 60 60 61 62 75 83 80
17 14 10 8 7 4 4 9 1 9 33 18 13 17 12 8 27 36 18 6 11 21 10 15 17 10 12 5 2 4 5 11 11 7 25 11 29 39 44 48 60 52 59 69 72
19 15 11 9 4 4 5 6 8 19 21 21 21 22 21 17 9 46 20 10 19 9 10 13 7 8 11 10 5 3 6 10 15 6 16 16 30 21 9 40 51 56 61 71 76
20 18 12 9 7 0 5 9 24 22 11 7 12 13 10 22 18 34 25 10 14 13 15 12 6 16 7 8 12 5 3 6 8 32 3 15 11 14 30 50 66 65 55 64 65
22 19 14 13 8 8 5 14 25 7 9 9 6 6 10 6 10 31 18 8 14 8 8 6 9 8 5 4 7 9 1 6 22 18 7 13 11 13 26 39 41 64 69 63 69
24 20 18 18 6 13 8 14 22 7 6 3 3 5 15 13 3 19 27 19 10 6 7 3 10 9 7 6 3 12 9 16 15 5 5 10 5 14 31 40 44 63 66 69 64
26 23 19 18 13 13 14 20 20 12 11 2 3 2 7 13 7 7 10 15 11 8 7 2 4 4 5 10 7 13 8 6 4 2 4 5 4 13 29 28 36 51 56 64 64
29 24 22 21 18 19 20 23 10 8 8 7 4 3 8 7 10 13 8 12 7 9 13 12 5 4 2 8 4 11 7 6 10 8 6 10 6 14 24 29 26 40 54 61 58
33 28 25 20 19 22 24 10 8 5 13 2 5 5 8 5 6 10 4 6 8 10 7 6 10 9 9 5 6 9 6 5 4 5 9 11 8 8 18 40 39 47 57 61 47
36 29 25 25 24 25 11 7 14 13 12 16 9 9 6 4 8 8 4 5 4 5 11 5 9 6 0 2 2 8 8 3 5 3 6 7 9 13 42 37 54 54 58 73 78
41 32 27 28 26 25 8 10 6 7 10 6 8 7 8 7 7 8 1 7 8 4 9 5 6 3 8 3 1 3 6 5 5 7 9 8 4 16 38 41 40 47 56 65 61
40 20 26 30 29 15 7 13 7 14 9 8 9 9 6 11 10 6 9 5 2 6 8 5 6 9 4 7 1 8 6 6 2 1 4 7 3 7 18 28 33 46 56 61 55
43 5 34 42 10 3 6 12 10 11 6 4 7 8 10 9 8 7 11 11 9 11 10 3 3 4 6 3 3 3 3 3 2 7 3 5 7 7 18 37 42 52 54 53 52
34 12 36 47 7 4 0 2 6 9 10 9 5 4 4 10 10 9 8 5 15 7 8 7 4 4 10 9 6 6 3 1 5 4 3 5 9 20 48 52 57 52 53 53 56
26 8 13 29 10 13 11 7 5 8 9 7 7 8 7 6 7 10 7 3 9 11 13 7 2 7 9 6 4 8 8 4 4 4 5 8 13 16 32 27 51 57 43 43 50
34 13 21 13 17 10 7 14 12 13 7 12 3 5 10 8 6 7 6 6 6 12 8 7 8 3 6 8 5 7 9 7 8 6 7 7 10 11 19 25 36 38 38 41 46
37 17 16 10 39 20 17 15 20 10 16 10 8 13 9 12 13 17 14 7 9 3 6 4 3 4 7 6 5 8 10 11 5 2 8 9 4 11 27 35 47 45 39 40 38
58 39 22 25 17 19 13 15 20 26 9 8 21 11 7 9 19 31 20 17 18 11 5 7 8 6 9 9 9 10 11 5 3 3 0 4 4 21 11 30 40 40 35 32 31
Wind_Direction_850mb
307 325 330 342 350 356 -0 2 3 4 360 354 353 351 355 44 40 42 32 11 6 9 14 13 5 55 76 72 60 68 65 181 338 22 314 342 2 341 341 336 334 25 17 343 305
287 303 322 333 349 356 355 358 360 3 360 351 345 349 357 33 18 35 29 14 17 15 23 20 38 61 65 42 26 62 84 13 65 1 3 320 336 326 337 332 332 330 337 348 332
275 290 312 326 344 349 351 353 355 1 355 348 351 -0 25 68 51 18 28 19 19 18 21 13 28 60 66 46 18 6 94 350 4 346 338 295 315 325 324 332 319 317 320 327 322
261 279 300 321 335 338 345 346 351 354 353 351 356 11 53 43 81 9 20 19 18 18 11 33 41 57 64 53 6 93 29 18 320 330 338 307 320 312 312 285 319 315 317 314 315
253 276 297 312 323 329 336 344 349 351 353 350 349 81 69 61 25 358 7 14 20 26 36 50 49 71 89 68 56 58 344 335 327 360 343 347 328 266 292 337 337 335 334 327 319
243 267 290 303 311 327 336 344 344 353 7 44 67 94 75 70 24 13 23 25 27 34 42 53 60 77 91 63 65 315 304 305 5 345 2 358 309 285 334 339 327 327 324 325 320
237 261 284 294 307 329 333 339 346 2 65 101 84 76 71 53 33 23 30 37 41 47 53 58 61 75 78 78 7 333 11 354 20 353 8 347 27 222 310 325 319 315 314 310 307
236 255 279 289 309 325 338 350 7 32 69 182 48 68 77 53 42 44 45 43 45 48 52 63 84 61 49 8 30 33 44 360 309 358 354 24 279 291 310 317 311 312 309 307 299
236 249 255 283 301 326 351 26 50 63 80 96 72 86 75 47 35 27 32 23 38 52 44 41 52 53 23 40 37 18 348 313 318 341 330 55 295 300 311 318 310 304 303 302 299
238 238 243 266 288 309 75 90 66 104 89 67 60 85 55 40 32 20 24 32 19 352 34 42 45 56 20 24 40 324 336 293 257 309 343 304 287 307 320 324 314 308 305 302 296
233 235 230 253 273 290 221 182 218 67 67 61 59 88 72 26 28 25 25 43 20 45 40 33 57 29 330 341 268 234 248 275 268 305 339 336 305 307 322 343 335 334 333 321 297
229 229 224 235 256 264 221 201 162 136 85 68 75 79 58 42 28 24 38 57 40 41 353 31 54 316 322 5 13 348 311 308 298 43 321 321 305 283 301 349 339 326 326 327 326
223 224 219 223 223 312 195 141 145 131 85 41 47 51 48 55 40 13 27 44 55 39 29 87 336 331 42 16 8 314 249 317 319 329 310 331 312 296 344 353 348 334 336 340 338
217 220 211 207 219 206 172 152 157 129 78 294 339 22 24 69 54 20 32 65 49 66 36 62 327 5 2 52 57 319 206 5 328 355 328 40 312 315 340 346 350 344 345 340 357
213 211 209 196 197 188 181 162 161 102 9 292 20 65 61 79 16 8 30 67 93 59 82 259 6 360 345 335 48 241 344 303 304 314 15 344 304 279 346 351 346 337 339 347 1
212 206 207 201 189 190 162 143 134 46 256 284 299 49 72 34 53 346 41 70 87 97 25 242 264 171 252 300 228 290 321 46 48 268 8 305 46 301 351 340 339 334 342 352 3
208 203 199 191 182 180 159 140 48 137 340 269 153 127 95 32 25 25 28 29 72 62 12 337 344 313 303 329 5 347 15 6 359 4 240 330 59 246 332 340 333 337 344 352 7
204 199 198 192 180 170 159 62 110 222 216 199 95 71 106 103 25 8 41 42 32 83 85 51 329 5 3 80 324 332 29 103 248 309 296 322 332 295 346 344 352 354 357 1 11
196 194 195 190 181 175 162 79 206 200 165 151 68 82 330 137 129 77 33 142 115 116 118 50 293 320 218 358 52 327 60 94 265 8 309 290 329 330 342 353 357 358 1 5 16
191 185 192 187 181 174 91 229 176 184 129 116 133 153 166 180 95 71 271 259 138 120 154 119 333 288 299 349 347 22 301 50 8 11 314 317 48 338 346 342 344 355 359 7 20
187 170 189 181 171 173 169 216 194 194 161 145 147 134 185 146 135 162 192 257 149 132 94 112 116 295 33 20 24 1 30 18 279 250 310 321 330 353 338 342 336 341 5 14 24
177 146 176 171 148 107 172 179 161 154 183 131 120 119 158 154 127 150 186 187 161 152 137 134 140 257 223 267 270 194 126 30 76 317 229 276 269 61 3 349 353 347 7 23 33
168 133 176 180 158 222 144 4 198 143 178 163 139 160 155 147 112 137 135 152 149 121 147 175 314 13 358 4 19 69 14 67 247 218 276 290 275 357 1 353 352 353 7 22 32
161 146 161 201 213 145 146 172 176 188 156 147 124 108 112 96 50 155 128 146 139 116 116 134 91 184 183 183 153 286 309 324 168 235 260 226 303 341 346 349 344 355 14 32 39
183 195 173 177 203 168 164 145 151 163 186 168 27 208 153 114 93 131 124 109 71 154 91 106 150 278 265 268 207 238 257 287 198 204 201 298 318 358 337 333 343 1 29 39 45
179 162 149 176 161 146 177 203 165 160 147 197 156 176 141 153 178 181 138 174 179 121 95 60 174 69 317 285 348 266 245 234 220 253 277 318 304 24 2 4 15 23 30 38 45
195 182 160 161 146 169 196 173 183 141 194 182 161 118 131 157 118 123 103 123 145 138 121 98 118 74 267 347 329 340 217 175 116 118 207 318 300 339 346 12 16 17 32 36 46